Location: Wald
(31.7579°N, 86.6655°W)
Time: 11:05:45
(UTC+00:00)

Cosmos 1610 Rocket - Pass Details

Date: 14 July 2020
Orbit: 953 x 1002 km, 82.9° (Epoch: 09 August)

Event Time Altitude Azimuth Distance (km) Brightness Sun altitude
Exits shadow 03:20:17 50° 181° (S) 1,239 4.7 -25.4°
Maximum altitude 03:22:05 87° 97° (E) 1,001 4.4 -25.6°
Drops below altitude 10° 03:28:29 10° 6° (N) 2,775 7.4 -26.5°
Sets 03:31:02 0° 7° (N) 3,730 8.2 -26.8°
